Regional Weather Roundup
Issued by NWS

Home | Current Version | Previous Version | Graphics & Text | Print | Product List | Glossary On
Versions: 1 2 3 4 5 6 7 8 9 10 11 12 13 14 15 16 17 18 19 20 21 22 23 24 25 26 27 28 29 30 31 32 33 34 35 36 37 38 39 40 41 42 43 44 45 46 47 48 49 50
000
ASUS45 KCYS 181810
RWRWY

WYOMING REGIONAL WEATHER ROUNDUP
NATIONAL WEATHER SERVICE CHEYENNE WY
1200 PM MDT THU SEP 18 2014

NOTE:  "FAIR" INDICATES FEW OR NO CLOUDS BELOW 12,000 FEET
WITH NO SIGNIFICANT WEATHER AND/OR OBSTRUCTIONS TO VISIBILITY.

WYZ001-181900-
YELLOWSTONE NATIONAL PARK

CITY           SKY/WX    TMP DP  RH WIND       PRES   REMARKS
LK YELLOWSTONE   N/A     52  49  89 CALM      30.19S
6HR MIN TEMP:  43; 6HR MAX TEMP:  55; 6HR PCP:  0.03;

W YELLOWSTONE  NOT AVBL

$$
WYZ002>013-054>058-071-098>099-181900-
NORTHERN WYOMING

CITY           SKY/WX    TMP DP  RH WIND       PRES   REMARKS
JACKSON        MOSUNNY   63  48  59 NW3       30.08F
CODY             N/A    N/A N/A N/A MISG        N/A
GREYBULL       CLOUDY    76  45  33 W6        29.88R
6HR MIN TEMP:  51; 6HR MAX TEMP:  76;

WORLAND        PTSUNNY   80  46  30 VRB6      29.87F
6HR MIN TEMP:  50; 6HR MAX TEMP:  80;

SHERIDAN       CLOUDY    72  54  53 E3        29.85S
6HR MIN TEMP:  52; 6HR MAX TEMP:  72;

BUFFALO        PTSUNNY   80  51  36 N8        29.91R
6HR MIN TEMP:  61; 6HR MAX TEMP:  87;

GILLETTE       MOSUNNY   87  44  22 SW14      29.86F
6HR MIN TEMP:  59; 6HR MAX TEMP:  88;

HULETT         FAIR      81  45  28 MISG      29.88
NEWCASTLE      FAIR      79  43  27 SE7       29.91

$$
WYZ014>020-022>026-101>103-181900-
CENTRAL WYOMING

CITY           SKY/WX    TMP DP  RH WIND       PRES   REMARKS
BIG PINEY      SUNNY     69  43  38 VRB6      30.11F
6HR MIN TEMP:  37; 6HR MAX TEMP:  69;

PINEDALE       CLEAR     72  37  28 S6        30.11F
DUBOIS         FAIR      72  37  28 W17G24    30.07F
LANDER         PTSUNNY   75  42  30 VRB5      29.96F
6HR MIN TEMP:  49; 6HR MAX TEMP:  75;

RIVERTON       MOSUNNY   74  47  38 SE5       29.98F
6HR MIN TEMP:  51; 6HR MAX TEMP:  75;

CASPER         SUNNY     85  38  18 SW20      29.97F
6HR MIN TEMP:  43; 6HR MAX TEMP:  85;

DOUGLAS        PTSUNNY   83  45  26 VRB3      29.96F
6HR MIN TEMP:  43; 6HR MAX TEMP:  83;


$$
WYZ021-027>030-104>119-181900-
SOUTHERN WYOMING

CITY           SKY/WX    TMP DP  RH WIND       PRES   REMARKS
EVANSTON       SUNNY     76  42  29 SW16      30.11F
6HR MIN TEMP:  55; 6HR MAX TEMP:  77;

KEMMERER       CLEAR     77  34  20 SW14G28   30.12F
FORT BRIDGER   FAIR      77  41  28 N3        30.14F
ROCK SPRINGS   SUNNY     77  33  20 NW6       30.10F
6HR MIN TEMP:  50; 6HR MAX TEMP:  78;

DIXON          FAIR      75  43  32 W5        30.14F
RAWLINS        SUNNY     81  31  16 SW16      30.11F
6HR MIN TEMP:  40; 6HR MAX TEMP:  81;

SARATOGA       FAIR      77  36  22 E3        30.14F
LARAMIE        SUNNY     77  35  21 S8        30.15F
6HR MIN TEMP:  40; 6HR MAX TEMP:  77;

CHEYENNE       SUNNY     84  31  14 SW9       30.07F
6HR MIN TEMP:  53; 6HR MAX TEMP:  84;

TORRINGTON     SUNNY     76  52  43 VRB6      29.93F
6HR MIN TEMP:  45; 6HR MAX TEMP:  76;

PINE BLUFFS    FAIR      86  32  14 S5        30.01F

$$


USA.gov is the U.S. government's official web portal to all federal, state and local government web resources and services.